Probability
0 0 0 0 0 0 0 0 0 0 0 0 0 0 0 0 0 0 0 0 0 0 0 0 0 0 0 0 0 0 0 0 0 0 0 0 0 0 0 0 0 0 0
0 0 0 0 0 0 0 0 0 0 0 0 0 0 0 0 0 0 0 0 0 0 0 0 0 0 0 0 0 0 0 0 0 0 0 0 0 0 0 0 0 0 0
0 0 0 0 0 0 0 0 0 0 0 0 0 0 0 0 0 0 0 0 0 0 0 0 0 0 0 0 0 0 0 0 0 0 0 0 0 0 0 0 0 0 0
0 0 0 0 0 0 0 0 0 0 0 0 0 0 0 0 0 0 0 0 0 0 0 0 0 0 0 0 0 0 0 0 0 0 0 0 0 0 0 0 0 0 0
0 1 1 0 0 0 0 0 0 0 0 0 0 0 0 0 0 0 0 0 0 0 0 0 0 0 0 0 0 0 0 0 0 0 0 0 0 0 0 0 0 0 0
1 2 2 1 0 1 1 0 0 1 1 1 0 0 0 0 0 0 0 0 0 0 0 0 0 0 0 0 0 0 0 0 0 0 0 0 0 0 0 0 0 0 0
1 2 2 1 1 1 2 1 0 1 2 1 0 0 0 0 0 0 0 0 0 0 0 0 0 0 0 0 0 0 0 0 0 0 0 0 0 0 0 0 0 0 0
0 1 1 1 0 1 2 2 1 1 2 3 2 0 0 0 0 0 0 0 0 0 0 0 0 0 0 0 0 0 0 0 0 0 0 0 0 0 0 0 0 0 0
0 0 0 0 0 0 1 2 1 1 2 4 3 1 0 0 0 0 0 0 0 0 0 0 0 0 0 0 0 0 0 0 0 0 0 0 0 0 0 0 0 0 0
0 0 0 0 0 0 0 1 1 1 2 3 3 1 0 0 0 0 0 0 0 0 0 0 0 0 0 0 0 0 0 0 0 0 0 0 0 0 0 0 0 0 0
0 0 0 0 0 0 0 0 0 1 2 3 2 1 0 0 0 0 0 0 0 0 0 0 0 0 0 0 0 0 0 0 0 0 0 0 0 0 0 0 0 0 0
0 0 0 0 0 0 0 0 1 2 3 3 2 0 0 0 0 0 0 0 0 0 0 0 0 0 0 0 0 0 0 0 0 0 0 0 0 0 0 0 0 0 0
0 0 0 0 0 0 1 1 2 3 5 4 2 1 0 0 0 0 0 0 0 0 0 0 0 0 0 0 0 0 0 0 0 0 0 0 0 0 0 0 0 0 0
0 0 0 0 0 1 2 3 3 4 6 4 3 2 1 0 0 0 0 0 0 0 0 0 0 0 0 0 0 0 0 0 0 0 0 0 0 0 0 0 0 0 0
0 0 0 0 1 2 3 3 3 4 5 4 3 2 1 0 0 0 0 0 0 0 0 0 0 0 0 0 0 0 0 0 0 0 0 0 0 0 0 0 0 0 0
0 0 0 0 1 2 3 3 3 4 5 4 2 1 1 1 0 0 0 0 0 0 0 0 0 0 0 0 0 0 0 0 0 0 0 0 0 0 0 0 0 0 0
0 0 0 0 0 1 2 3 3 3 4 4 2 0 0 0 0 0 0 0 0 0 0 0 0 0 0 0 0 0 0 0 0 0 0 0 0 0 0 0 0 0 0
0 0 0 0 0 0 1 1 2 2 2 3 2 1 0 0 1 1 0 0 0 0 0 0 0 0 0 0 0 0 0 0 0 0 0 0 0 0 0 0 0 0 0
1 1 0 0 0 0 0 0 1 1 1 2 2 1 1 1 1 1 0 0 0 0 0 0 0 0 0 0 0 0 0 0 0 0 0 0 0 0 0 0 0 0 0
0 0 0 0 0 0 0 0 0 0 0 1 1 1 1 2 2 1 0 0 0 0 0 0 0 0 0 0 0 0 0 0 0 0 0 0 0 0 0 0 0 0 0
0 0 0 0 0 0 0 0 0 0 0 1 2 2 1 1 1 1 0 0 0 0 0 0 0 0 0 0 0 0 0 0 0 0 0 0 0 0 0 0 0 0 0
0 0 0 0 0 0 0 0 0 0 0 1 3 3 2 1 1 0 0 0 0 0 0 0 0 0 0 0 0 0 0 0 0 0 0 0 0 0 0 0 0 0 0
0 0 0 0 0 0 0 0 1 0 0 1 2 2 2 1 0 0 0 0 0 0 0 0 0 0 0 0 0 0 0 0 0 0 0 0 0 0 0 0 0 0 0
0 0 0 0 0 0 0 0 0 0 0 1 1 1 1 1 0 0 0 0 0 0 0 0 0 0 0 0 0 0 0 0 0 0 0 0 0 0 0 0 0 0 0
0 0 0 0 0 0 0 0 0 0 0 0 0 0 0 0 0 0 0 0 0 0 0 0 0 0 0 0 0 0 0 0 0 0 0 0 0 0 0 0 0 0 0
0 0 0 0 0 0 0 0 0 0 0 0 0 0 0 0 0 0 0 0 0 0 0 0 0 0 0 0 0 0 0 0 0 0 0 0 0 0 0 0 0 0 0
Wind_Speed
8 8 8 8 8 8 7 7 7 6 5 3 3 2 3 2 2 3 3 3 2 2 3 1 2 2 2 2 3 3 4 3 2 3 4 4 5 6 5 4 4 6 6
9 9 9 9 9 8 8 8 7 6 6 3 3 2 2 2 3 2 3 3 3 3 2 2 2 2 2 2 3 2 2 2 1 1 1 3 3 3 5 4 4 5 5
10 11 10 10 10 9 8 7 7 7 6 6 4 3 3 2 2 3 2 3 3 3 2 2 2 2 2 3 2 2 2 2 2 2 2 1 2 2 3 5 4 5 5
9 10 10 11 10 9 8 8 7 7 7 7 5 5 3 2 2 2 2 3 3 3 3 3 2 2 3 3 2 2 1 1 2 2 2 3 2 1 2 2 4 5 5
9 10 10 10 9 9 8 7 8 7 7 6 5 4 3 3 2 2 3 3 3 3 3 3 2 3 2 3 3 2 2 1 1 1 1 2 1 1 0 2 2 3 4
10 9 9 9 9 8 8 7 8 7 6 6 6 5 5 4 4 3 3 2 2 2 3 3 2 3 3 3 2 2 3 2 2 1 1 1 1 1 1 1 2 2 3
10 10 10 10 10 10 9 9 9 8 8 7 7 6 6 5 4 3 3 2 2 2 3 2 2 3 3 3 2 3 3 3 2 2 2 2 2 2 1 1 1 1 2
10 10 11 10 10 11 10 9 10 9 8 8 7 6 6 4 3 3 3 2 2 2 3 2 3 3 3 3 3 2 3 2 3 3 3 2 2 2 2 1 1 0 1
10 10 10 10 11 11 11 10 10 10 9 8 7 6 6 5 4 4 3 2 2 2 3 3 3 3 3 3 3 2 3 3 3 3 3 2 2 2 2 1 1 2 1
9 9 9 10 10 10 10 10 10 10 10 9 7 6 6 6 5 4 4 3 3 3 3 3 3 4 3 3 3 3 3 3 3 2 3 3 2 2 2 1 2 2 2
8 9 9 9 9 10 10 10 10 10 10 9 8 8 7 6 5 4 4 4 4 4 3 3 3 3 3 3 3 3 3 3 3 3 3 3 3 2 2 1 1 2 2
7 8 9 9 9 10 10 10 10 11 10 9 8 7 7 7 6 5 5 4 4 4 4 4 3 3 3 3 3 3 3 2 3 3 2 3 2 2 2 2 2 2 2
7 8 8 9 9 10 10 10 10 10 10 10 9 8 8 7 6 6 5 4 4 4 4 4 4 3 3 3 2 2 2 2 2 2 2 2 2 2 2 1 1 1 1
7 8 8 8 9 9 10 10 10 10 10 10 9 9 8 7 6 6 5 5 4 5 4 4 3 3 3 2 2 2 2 2 2 2 2 2 3 3 2 1 2 1 1
7 8 8 8 9 9 10 10 10 10 11 11 10 9 8 7 6 6 5 5 4 4 4 4 4 3 2 1 1 2 2 2 2 2 3 4 5 7 5 3 2 1 1
7 7 8 9 10 10 10 10 10 10 10 11 10 9 8 7 6 6 6 6 5 5 4 4 4 3 2 4 1 1 2 2 2 2 2 3 3 5 4 5 5 4 3
7 7 8 9 9 10 10 10 10 10 10 11 10 10 9 8 7 7 7 6 6 6 5 4 4 4 5 5 3 1 1 1 1 1 2 2 2 1 3 4 3 3 3
6 7 7 7 8 9 9 9 10 10 10 10 10 10 9 9 8 7 7 7 6 6 5 4 4 3 4 5 4 2 2 2 2 1 1 1 2 2 2 1 1 2 3
6 6 6 6 7 8 9 9 10 10 10 10 10 10 10 9 8 8 8 7 6 6 5 5 4 4 5 6 4 4 2 2 2 1 0 0 1 4 3 1 0 1 2
4 4 5 6 6 7 8 9 10 10 10 10 9 9 9 9 9 8 7 6 6 6 5 4 4 4 4 6 5 5 3 3 2 2 2 2 1 2 3 2 1 1 1
3 4 5 5 6 7 8 9 9 9 9 9 8 8 9 8 8 7 6 6 6 6 5 5 4 4 4 6 5 4 2 2 2 2 1 2 3 1 2 4 2 3 3
3 4 5 5 5 7 8 8 7 6 7 7 8 8 8 7 7 7 6 6 6 6 6 5 5 3 4 4 5 4 2 2 2 1 1 2 3 1 2 2 2 2 4
4 4 5 6 6 6 6 7 6 6 7 8 8 7 8 6 7 7 7 6 6 5 5 5 4 4 3 4 5 5 3 2 2 0 3 2 2 3 2 2 2 4 3
4 4 5 6 5 5 5 5 6 7 8 8 8 7 7 7 6 5 5 5 5 5 5 4 4 4 3 3 4 4 4 4 3 2 3 4 3 3 1 2 3 3 2
4 5 5 5 5 5 5 5 6 7 8 8 8 7 6 6 6 5 3 4 4 3 4 4 4 4 4 3 2 3 3 2 1 1 2 3 2 2 2 2 2 2 2
5 5 5 5 5 5 5 5 6 7 7 7 7 6 5 5 5 5 5 3 2 3 2 1 1 2 2 5 5 3 2 2 3 3 3 3 3 3 2 3 3 3 3
Wind_Direction
174 172 174 173 172 171 167 160 162 155 149 145 152 144 126 106 85 70 64 60 54 58 70 64 69 62 88 99 107 105 114 106 103 114 108 97 75 67 61 42 45 54 47
177 175 180 177 178 174 173 168 168 166 162 154 146 134 118 98 76 72 66 51 59 58 61 81 90 90 94 104 96 102 106 102 86 107 132 130 117 71 56 56 46 47 53
189 181 184 182 181 179 175 176 174 168 166 159 149 143 134 143 128 104 79 52 54 63 60 67 73 85 103 97 87 116 126 116 93 24 343 342 79 107 77 53 58 52 47
195 186 186 185 185 182 178 180 175 169 167 167 168 164 162 137 107 95 93 86 67 65 63 74 74 81 81 93 96 73 84 106 117 95 17 20 39 306 128 98 64 53 51
195 189 187 186 183 177 177 177 172 170 169 171 164 174 160 131 118 114 108 95 80 68 71 65 72 79 81 80 70 69 52 60 44 71 82 75 66 317 29 105 97 76 58
194 189 181 177 172 167 171 172 172 167 168 174 173 173 157 151 143 135 119 111 100 83 81 77 81 87 84 86 81 84 79 50 54 42 51 41 39 27 25 88 111 89 69
190 186 179 177 172 170 170 173 173 170 173 178 176 170 167 166 162 153 133 125 111 96 84 84 80 79 79 81 84 90 78 77 67 47 48 43 37 17 356 26 88 101 103
191 186 182 181 177 174 172 176 176 174 173 179 176 173 166 170 155 154 144 133 109 95 97 92 83 82 84 89 84 79 74 68 73 65 59 58 60 37 23 6 325 205 125
190 187 183 183 181 178 177 178 178 177 177 179 176 173 167 166 159 161 149 131 123 110 110 106 101 92 89 88 94 81 79 68 60 60 66 55 64 42 27 16 338 318 327
184 185 184 184 183 181 178 177 180 179 178 179 176 169 170 166 166 163 153 149 140 128 130 118 109 105 101 96 86 83 70 82 74 46 47 47 56 56 48 16 3 346 343
183 182 183 183 180 178 176 177 180 179 178 179 176 172 171 171 171 165 159 160 152 148 143 134 124 112 108 107 104 93 90 81 85 78 66 62 44 41 43 28 23 20 14
181 179 176 175 176 179 179 181 180 178 178 179 176 175 168 172 176 169 166 164 156 153 149 140 134 124 117 113 109 101 96 83 72 68 64 67 73 47 30 21 28 35 10
175 173 172 175 177 179 181 182 180 178 177 177 176 177 174 174 175 170 164 166 162 158 154 147 142 137 136 129 121 114 101 85 70 68 62 56 62 62 57 24 32 39 40
176 176 177 179 178 181 182 181 179 176 175 174 179 182 179 175 175 168 167 171 165 163 160 152 147 144 145 146 141 128 115 103 84 63 48 39 30 22 30 32 44 44 56
181 182 184 181 179 181 182 180 180 177 177 176 181 182 178 175 173 167 170 167 161 164 159 153 150 143 144 132 154 155 146 127 109 97 76 58 47 32 21 11 16 26 16
189 187 188 185 185 184 183 180 179 181 180 180 180 175 175 172 173 170 169 163 161 159 154 156 152 150 134 93 38 292 161 152 136 119 105 102 105 91 77 54 34 10 354
193 193 192 191 192 189 184 182 180 180 184 182 176 175 174 173 175 170 167 164 165 159 156 160 157 160 126 128 137 271 217 156 130 127 115 95 91 176 113 115 133 79 38
198 197 195 190 192 189 184 179 176 180 183 182 177 174 175 174 172 171 169 172 170 161 166 168 164 150 137 145 153 190 203 156 148 145 136 134 110 61 16 83 67 46 40
204 199 196 186 184 184 181 177 177 180 181 182 181 177 176 174 173 174 174 172 170 166 169 168 168 166 156 154 167 209 186 175 164 153 103 0 107 74 330 279 56 60 75
194 185 178 173 173 177 175 178 179 181 184 183 182 177 175 175 178 178 176 169 169 170 168 167 179 176 164 151 175 223 202 190 173 157 145 76 45 84 307 271 271 297 352
167 163 164 166 168 169 173 179 181 187 184 177 175 173 173 176 175 171 170 169 168 168 171 169 177 178 166 160 176 222 234 206 198 188 179 116 120 131 308 299 320 351 321
142 151 154 154 157 165 173 176 179 176 166 165 169 170 170 168 166 164 167 169 167 171 175 178 175 178 167 167 173 191 240 288 217 213 190 113 129 158 283 297 27 327 288
133 140 143 141 147 159 172 172 165 161 160 162 165 165 163 162 167 165 165 167 173 180 183 183 182 179 172 158 166 180 190 234 239 169 64 95 166 200 205 174 238 253 260
126 132 135 138 145 153 163 164 155 159 160 161 162 163 162 161 164 166 170 172 179 184 185 185 186 180 178 176 174 180 179 182 197 180 149 170 202 233 242 213 224 248 285
125 132 135 141 148 152 154 154 154 158 159 158 156 159 158 157 162 162 167 180 175 180 185 185 185 185 190 173 161 190 194 202 184 183 201 213 212 224 228 240 255 266 260
134 135 134 141 149 152 152 154 158 161 161 156 156 155 154 154 158 159 150 96 96 109 114 89 193 175 125 129 145 161 151 151 168 205 217 225 236 244 252 258 260 261 268